Flag for United Kingdom Weather past 2 weeks in Haywards Heath, England, United Kingdom

Now
61 °F

Sunny.


Feels Like: 61 °F
Forecast: 50 / 64 °F
Wind: 6 mph from Southwest

Location: London / Gatwick Airport

Current Time: Sep 23, 2014 at 6:28:07 PM

Latest Report: Sep 23, 2014 at 5:50 PM


Visibility: 10 mi

Pressure: 30.07 "Hg

Humidity: 63%

Dew point: 48 °F

Location of Haywards HeathLocation

Historic Weather in Haywards Heath — Graph

°F

Haywards Heath temperature yesterday

Maximum temperature yesterday: 64 °F (at 3:20 PM)
Minimum temperature yesterday: 45 °F (at 4:50 AM)
Average temperature yesterday: 54 °F

Past Weeks' High & Low Weather Summary

 TemperatureHumidityPressure
High77 °F (Sep 18, 1:50 PM)100% (Sep 9, 4:20 AM)30.33 "Hg (Sep 9, 4:20 AM)
Low41 °F (Sep 23, 3:50 AM)46% (Sep 8, 5:20 PM)29.77 "Hg (Sep 18, 4:50 AM)
Average60 °F82%30.09 "Hg
* Reported Sep 8 5:20 PM — Sep 23 5:20 PM, Haywards Heath, Weather by CustomWeather, © 2014

Note: Actual official high and low records may vary slightly from our data, if they occured in-between our weather recording intervals... More about our weather records

Advertising

Haywards Heath weather history for previous 24 hours

 ConditionsComfort  
Time TempWeatherWind HumidityBarometerVisibility
5:20 PM
Sep 23
63 °FSunny.7 mph59%30.07 "Hg10 mi
4:50 PM63 °FPassing clouds.7 mph59%30.07 "HgN/A
4:20 PM63 °FPassing clouds.7 mph59%30.09 "HgN/A
3:50 PM64 °FPassing clouds.7 mph56%30.09 "HgN/A
3:20 PM64 °FScattered clouds.8 mph56%30.09 "HgN/A
2:50 PM63 °FPassing clouds.6 mph59%30.12 "HgN/A
2:20 PM64 °FPassing clouds.6 mph56%30.12 "HgN/A
1:50 PM64 °FPassing clouds.8 mph56%30.12 "HgN/A
1:20 PM63 °FPassing clouds.8 mph59%30.15 "HgN/A
12:50 PM63 °FPassing clouds.9 mph59%30.15 "HgN/A
12:20 PM63 °FPassing clouds.8 mph59%30.15 "HgN/A
11:50 AM63 °FPassing clouds.6 mph64%30.15 "HgN/A
11:20 AM61 °FClear.5 mph72%30.18 "Hg6 mi
10:50 AM57 °FClear.3 mph82%30.18 "Hg4 mi
10:20 AM55 °FClear.2 mph88%30.18 "Hg4 mi
9:50 AM52 °FHaze.No wind88%30.18 "Hg3 mi
9:20 AM50 °FHaze.No wind94%30.18 "Hg3 mi
8:50 AM48 °FFog.No wind94%30.18 "Hg2 mi
8:20 AM45 °FFog.No wind100%30.18 "Hg2 mi
7:50 AM43 °FFog.No wind93%30.18 "Hg1 mi
7:20 AM41 °FFog.3 mph100%30.18 "Hg1 mi
6:50 AM43 °FFog.2 mph100%30.18 "Hg1 mi
6:20 AM41 °FFog.3 mph100%30.18 "Hg1 mi
5:50 AM41 °FFog.No wind100%30.18 "Hg1 mi
5:20 AM41 °FFog.No wind100%30.18 "Hg1 mi
4:50 AM41 °FFog.No wind100%30.21 "Hg2 mi
4:20 AM43 °FFog.2 mph100%30.18 "Hg2 mi
3:50 AM41 °FQuite cool.3 mph93%30.21 "Hg2 mi
3:20 AM43 °FQuite cool.2 mph93%30.21 "Hg2 mi
2:50 AM45 °FHaze.2 mph93%30.21 "Hg2 mi
2:20 AM45 °FHaze.No wind93%30.21 "Hg2 mi
1:50 AM46 °FHaze.No wind93%30.24 "Hg2 mi
1:20 AM46 °FHaze.2 mph93%30.24 "Hg2 mi
12:20 AM48 °FHaze.2 mph94%30.24 "Hg2 mi
11:50 PM
Sep 22
50 °FHaze.No wind88%30.24 "Hg3 mi
11:20 PM50 °FHaze.2 mph94%30.27 "Hg3 mi
10:50 PM52 °FHaze.2 mph88%30.27 "Hg3 mi
10:20 PM50 °FHaze.3 mph88%30.27 "Hg3 mi
9:50 PM52 °FClear.No wind82%30.27 "Hg4 mi
9:20 PM52 °FClear.No wind82%30.27 "Hg4 mi
8:50 PM54 °FClear.No wind77%30.27 "Hg4 mi
8:20 PM54 °FClear.2 mph77%30.24 "Hg5 mi
7:50 PM54 °FClear.2 mph77%30.24 "Hg6 mi
7:20 PM57 °FClear.2 mph67%30.24 "Hg6 mi
6:50 PM59 °FPassing clouds.5 mph63%30.24 "HgN/A
6:20 PM63 °FSunny.5 mph56%30.24 "Hg10 mi
Weather by CustomWeather, © 2014

See weather overviewHow to use our weather pages